Preview of NWS' New Version of Forecast
This preview is not operational and should not be used for support decisions.

Regional Weather Roundup (RWR)

Issued by National Weather Service (NWS)

                            
000
ASUS44 KJAN 250310
RWRMS 

MISSISSIPPI HOURLY WEATHER ROUNDUP
NATIONAL WEATHER SERVICE JACKSON MS
1000 PM CDT MON JUN 24 2019

NOTE: "FAIR: INDICATES FEW OR NO CLOUDS BELOW 12,000 FEET WITH NO
SIGNIFICANT WEATHER AND/OR OBSTRUCTIONS TO VISIBILITY.

MSZ001>002-007>008-010>013-018>021-025>028-034>036-250400-
NORTHWEST MISSISSIPPI
  
CITY           SKY/WX    TMP DP  RH WIND       PRES   REMARKS
BATESVILLE       N/A     73  70  88 S5        29.94R                  
CLARKSDALE     CLEAR     75  75 100 CALM      29.94R                  
CLEVELAND      FAIR      75  75 100 CALM      29.94R                  
GREENWOOD      FAIR      73  71  93 CALM      29.94S                  
GREENVILLE       N/A    N/A N/A N/A MISG      29.93S                  
OLIVE BRANCH     N/A     72  72 100 SW5       29.93                   
OXFORD         FAIR      72  68  88 VRB5      29.96R                  
TUNICA           N/A     73  70  88 S5        29.94R                  
WINONA         FAIR      71  71 100 CALM      29.95S                  
$$

MSZ003>006-009-014>017-022>024-029>033-037>039-250400-
NORTHEAST MISSISSIPPI
  
CITY           SKY/WX    TMP DP  RH WIND       PRES   REMARKS
ABERDEEN       FAIR      70  70 100 CALM      29.97R FOG              
COLUMBUS AFB   FAIR      73  68  86 CALM      29.95R                  
GOLDN TRIANGLE FAIR      75  67  76 CALM      29.96R                  
STARKVILLE       N/A     70  66  88 CALM      29.97R                  
TUPELO         FAIR      75  68  78 CALM      29.95R                  
$$

MSZ040-058-250400-
CENTRAL MISSISSIPPI
  
CITY           SKY/WX    TMP DP  RH WIND       PRES   REMARKS
JACKSON INTL   FAIR      75  69  81 CALM      29.95S                  
JACKSON HAWKNS FAIR      75  72  90 CALM      29.96S                  
MADISON        FAIR      72  72 100 CALM      29.95S                  
MERIDIAN KEY   FAIR      75  70  84 S3        29.97R                  
MERIDIAN NAS   FAIR      74  69  85 SW3       29.97R                  
RAYMOND        FAIR      73  73 100 CALM      29.96R                  
$$

MSZ059>079-250400-
SOUTH MISSISSIPPI
  
CITY           SKY/WX    TMP DP  RH WIND       PRES   REMARKS
HATTIESBURG    FAIR      74  71  91 CALM      29.99R                  
LAUREL         CLEAR     78  70  77 SW5       29.98R                  
MCCOMB         FAIR      73  70  90 CALM      29.98R                  
NATCHEZ        FAIR      73  71  93 CALM      29.96S                  
PINE BELT      FAIR      72  71  97 S3        30.00R                  
$$

MSZ080>082-250400-
COASTAL MISSISSIPPI
  
CITY           SKY/WX    TMP DP  RH WIND       PRES   REMARKS
BILOXI         FAIR      82  74  77 SW9       29.97R                  
PASCAGOULA     FAIR      79  74  84 CALM      29.97R                  
GULFPORT       FAIR      78  71  79 W3        29.96R                  
$$

LAZ007>009-015>016-023>026-250400-
NORTHEAST LOUISIANA
  
CITY           SKY/WX    TMP DP  RH WIND       PRES   REMARKS
BASTROP        FAIR      72  71  98 CALM      29.95R                  
TALLULAH/VBURG FAIR      74  71  91 CALM      29.95R                  
VIDALIA        FAIR      75  73  92 CALM      29.94S                  
$$